Weather History for Newark, NJ

Change the Weather History Date:

Monday, March 31, 2014

  Actual Average Record
Temperature  
Mean Temperature 47 °F 47 °F  
Max Temperature 56 °F 56 °F 85 °F (1998)
Min Temperature 37 °F 38 °F 22 °F (1964)
Degree Days  
Heating Degree Days 18 18  
Month to date heating degree days 834 709  
Since 1 July heating degree days 4709 4344  
Cooling Degree Days 0 0  
Month to date cooling degree days 0 1  
Year to date cooling degree days 0 1  
Moisture  
Dew Point 33 °F    
Average Humidity 62    
Maximum Humidity 85    
Minimum Humidity 38    
Precipitation  
Precipitation 0.12 in 0.14 in 2.50 in (1934)
Month to date precipitation 3.65 4.18  
Year to date precipitation 11.37 10.60  
Snow  
Snow T in 0.10 in 1.40 in (1980)
Month to date snowfall 0.2 4.6  
Since 1 July snowfall 60.7 27.6  
Snow Depth 0.00 in    
Sea Level Pressure  
Sea Level Pressure 29.88 in    
Wind  
Wind Speed 16 mph (NNW)    
Max Wind Speed 24 mph    
Max Gust Speed 31 mph    
Visibility 9 miles    
Events Rain , Snow    
T = Trace of Precipitation, MM = Missing Value Source: NWS Daily Summary

Daily Weather History Graph

Daily Weather History Graph

Search for Another Location

Airport:

Trip Planner

Search our weather history database for the weather conditions in past years. The results will help you decide how hot, cold, wet, or windy it might be!

Date:

Astronomy

Mar. 31, 2014 Rise Set
Actual Time 6:41 AM EDT 7:20 PM EDT
Civil Twilight 6:14 AM EDT 7:47 PM EDT
Nautical Twilight 5:41 AM EDT 8:20 PM EDT
Astronomical Twilight 5:08 AM EDT 8:54 PM EDT
Moon 7:03 AM EDT (3/31) 8:36 PM EDT (3/31)
Length of Visible Light 13h 33m
Length of Day
12h 38m
New Moon, 1% of the Moon is Illuminated
Mar 31
New Moon
Apr 7
First Quarter
Apr 15
Full
Apr 22
Last Quarter
Apr 29
New

Hourly Weather History & Observations

Time (EDT) Temp. Windchill Dew Point Humidity Pressure Visibility Wind Dir Wind Speed Gust Speed Precip Events Conditions
12:51 AM 41.0 °F 31.6 °F 36.0 °F 82% 29.69 in 10.0 mi North 20.7 mph - N/A   Overcast
1:51 AM 39.9 °F 31.8 °F 36.0 °F 86% 29.72 in 10.0 mi North 15.0 mph - 0.00 in Rain Light Rain
2:33 AM 39.2 °F 30.8 °F 35.6 °F 87% 29.74 in 4.0 mi North 15.0 mph - 0.02 in Rain Light Rain
2:51 AM 39.0 °F 29.0 °F 36.0 °F 89% 29.75 in 5.0 mi North 20.7 mph 27.6 mph 0.02 in Rain Light Rain
2:58 AM 39.2 °F 29.3 °F 35.6 °F 87% 29.74 in 7.0 mi North 20.7 mph - 0.00 in Rain Light Rain
3:51 AM 39.0 °F 30.6 °F 36.0 °F 89% 29.75 in 10.0 mi North 15.0 mph 21.9 mph 0.01 in   Overcast
4:51 AM 39.0 °F 31.4 °F 36.0 °F 89% 29.77 in 8.0 mi NNW 12.7 mph - 0.01 in Rain Light Rain
5:39 AM 39.2 °F 32.0 °F 35.6 °F 87% 29.80 in 10.0 mi North 11.5 mph - 0.01 in   Overcast
5:51 AM 39.9 °F 32.9 °F 36.0 °F 86% 29.80 in 10.0 mi NNW 11.5 mph - 0.01 in   Overcast
6:51 AM 37.9 °F 27.1 °F 33.1 °F 83% 29.83 in 7.0 mi NNW 23.0 mph 28.8 mph 0.02 in Rain Rain
7:51 AM 37.0 °F 28.5 °F 34.0 °F 89% 29.86 in 7.0 mi North 13.8 mph - 0.05 in Rain Light Rain
7:59 AM 37.4 °F 28.9 °F 33.8 °F 87% 29.86 in 7.0 mi North 13.8 mph - 0.00 in Rain Light Ice Pellets
8:06 AM 37.4 °F 29.3 °F 33.8 °F 87% 29.87 in 9.0 mi North 12.7 mph - 0.00 in Rain , Snow Light Snow
8:51 AM 39.0 °F 31.0 °F 33.1 °F 79% 29.88 in 10.0 mi NNW 13.8 mph - 0.00 in   Overcast
9:51 AM 39.0 °F 30.6 °F 32.0 °F 76% 29.91 in 10.0 mi NNW 15.0 mph - N/A   Overcast
10:51 AM 41.0 °F 32.5 °F 32.0 °F 70% 29.92 in 10.0 mi NNW 17.3 mph 24.2 mph N/A   Overcast
11:21 AM 42.8 °F 35.1 °F 32.0 °F 66% 29.92 in 10.0 mi North 16.1 mph 25.3 mph N/A   Overcast
11:51 AM 44.1 °F 36.5 °F 32.0 °F 63% 29.92 in 10.0 mi North 17.3 mph - N/A   Mostly Cloudy
12:51 PM 48.9 °F - 34.0 °F 56% 29.91 in 10.0 mi NNW 16.1 mph 21.9 mph N/A   Scattered Clouds
1:51 PM 53.1 °F - 34.0 °F 48% 29.90 in 10.0 mi NNW 15.0 mph 21.9 mph N/A   Scattered Clouds
2:51 PM 55.0 °F - 34.0 °F 45% 29.88 in 10.0 mi NW 16.1 mph - N/A   Scattered Clouds
3:51 PM 55.0 °F - 32.0 °F 42% 29.90 in 10.0 mi NW 20.7 mph 28.8 mph N/A   Partly Cloudy
4:51 PM 55.0 °F - 30.9 °F 40% 29.92 in 10.0 mi NW 20.7 mph 27.6 mph N/A   Partly Cloudy
5:51 PM 55.0 °F - 30.9 °F 40% 29.94 in 10.0 mi NNW 20.7 mph 27.6 mph N/A   Scattered Clouds
6:51 PM 54.0 °F - 30.9 °F 41% 29.97 in 10.0 mi NW 13.8 mph - N/A   Scattered Clouds
7:51 PM 53.1 °F - 30.9 °F 43% 29.99 in 10.0 mi NNW 12.7 mph - N/A   Scattered Clouds
8:51 PM 51.1 °F - 32.0 °F 48% 30.01 in 10.0 mi NNW 12.7 mph - N/A   Scattered Clouds
9:51 PM 46.9 °F - 32.0 °F 56% 30.03 in 10.0 mi North 16.1 mph - N/A   Scattered Clouds
10:51 PM 41.0 °F 33.1 °F 28.9 °F 62% 30.07 in 10.0 mi NNE 15.0 mph - N/A   Partly Cloudy
11:51 PM 39.9 °F 33.4 °F 27.0 °F 60% 30.09 in 10.0 mi North 10.4 mph - N/A   Clear